Terminal Aerodrome Forecast
Issued by NWS Sioux Falls, SD

Home | Current Version | Previous Version | Graphics & Text | Print | Product List | Glossary Off
Versions: 1 2 3 4 5 6 7 8 9 10 11 12 13

000
FTUS43 KFSD 291120
TAFHON
TAF
KHON 291120Z 2912/3012 27011KT P6SM SKC
     FM291400 29013G20KT P6SM SKC
     FM291600 29022G32KT P6SM SKC
     FM292100 29018G26KT P6SM SKC
     FM300100 28005KT P6SM SKC=

USA.gov is the U.S. government's official web portal to all federal, state and local government web resources and services.